Weather History for NZCH - January, 2014

Change the Weather History Date:

Wednesday, January 22, 2014

  Actual Average Record
Temperature  
Mean Temperature 66 °F -  
Max Temperature 77 °F 69 °F 87 °F (1997)
Min Temperature 55 °F 51 °F 39 °F (2015)
Cooling Degree Days 1    
Growing Degree Days 16 (Base 50)    
Moisture  
Dew Point 50 °F    
Average Humidity 69    
Maximum Humidity 94    
Minimum Humidity 26    
Precipitation  
Precipitation 0.00 in - - ()
Sea Level Pressure  
Sea Level Pressure 29.52 in    
Wind  
Wind Speed 12 mph ()    
Max Wind Speed 26 mph    
Max Gust Speed 39 mph    
Visibility 6.2 miles    
Events      
Averages and records for this station are not official NWS values.
T = Trace of Precipitation, MM = Missing Value Source: Averaged Metar Reports

Daily Weather History Graph

Daily Weather History Graph

Search for Another Location

Airport or City:

Trip Planner

Search our weather history database for the weather conditions in past years. The results will help you decide how hot, cold, wet, or windy it might be!

Date:

Astronomy

Jan. 22, 2014 Rise Set
Actual Time 6:16 AM NZDT 9:05 PM NZDT
Civil Twilight 5:42 AM NZDT 9:39 PM NZDT
Nautical Twilight 5:00 AM NZDT 10:21 PM NZDT
Astronomical Twilight 4:10 AM NZDT 11:10 PM NZDT
Moon 11:38 PM NZDT (1/22) 11:55 AM NZDT (1/22)
Length of Visible Light 15h 56m
Length of Day
14h 49m
Waning Gibbous, 72% of the Moon is Illuminated
Jan 22
Waning Gibbous
Jan 24
Last Quarter
Jan 31
New
Feb 7
First Quarter
Feb 15
Full

Hourly Weather History & Observations

Time (NZDT) Temp. Dew Point Humidity Pressure Visibility Wind Dir Wind Speed Gust Speed Precip Events Conditions
12:00 AM 55.4 °F 51.8 °F 88% 29.68 in 6.2 mi ENE 10.4 mph - N/A   Overcast
12:30 AM 55.4 °F 51.8 °F 88% 29.65 in 6.2 mi ENE 9.2 mph - N/A   Overcast
1:00 AM 55.4 °F 51.8 °F 88% 29.65 in 6.2 mi ENE 9.2 mph - N/A   Overcast
1:30 AM 55.4 °F 53.6 °F 94% 29.65 in 6.2 mi East 9.2 mph - N/A   Overcast
2:00 AM 55.4 °F 53.6 °F 94% 29.65 in 6.2 mi East 8.1 mph - N/A   Overcast
2:30 AM 55.4 °F 53.6 °F 94% 29.65 in 6.2 mi East 9.2 mph - N/A   Mostly Cloudy
3:00 AM 55.4 °F 53.6 °F 94% 29.65 in 6.2 mi East 8.1 mph - N/A   Overcast
3:30 AM 55.4 °F 53.6 °F 94% 29.62 in 6.2 mi ENE 8.1 mph - N/A   Overcast
4:00 AM 55.4 °F 53.6 °F 94% 29.62 in 6.2 mi ENE 10.4 mph - N/A   Overcast
4:30 AM 55.4 °F 51.8 °F 88% 29.62 in 6.2 mi ENE 11.5 mph - N/A   Overcast
5:00 AM 55.4 °F 53.6 °F 94% 29.62 in 6.2 mi ENE 10.4 mph - N/A   Overcast
5:30 AM 55.4 °F 53.6 °F 94% 29.59 in 6.2 mi ENE 10.4 mph - N/A   Overcast
6:00 AM 55.4 °F 53.6 °F 94% 29.59 in 4.3 mi ENE 9.2 mph - N/A   Overcast
6:30 AM 55.4 °F 53.6 °F 94% 29.59 in 6.2 mi ENE 10.4 mph - N/A   Overcast
7:00 AM 55.4 °F 53.6 °F 94% 29.59 in 6.2 mi ENE 9.2 mph - N/A   Overcast
7:30 AM 57.2 °F 53.6 °F 88% 29.59 in 6.2 mi ENE 9.2 mph - N/A   Overcast
8:00 AM 57.2 °F 53.6 °F 88% 29.59 in 6.2 mi NE 12.7 mph - N/A   Overcast
8:30 AM 57.2 °F 53.6 °F 88% 29.59 in 6.2 mi NE 13.8 mph - N/A   Overcast
9:00 AM 59.0 °F 53.6 °F 82% 29.59 in 6.2 mi NE 15.0 mph - N/A   Overcast
9:30 AM 59.0 °F 53.6 °F 82% 29.59 in 6.2 mi ENE 15.0 mph - N/A   Mostly Cloudy
10:00 AM 60.8 °F 53.6 °F 77% 29.56 in 6.2 mi ENE 15.0 mph - N/A   Mostly Cloudy
10:30 AM 62.6 °F 53.6 °F 72% 29.56 in 6.2 mi ENE 16.1 mph - N/A   Mostly Cloudy
11:00 AM 62.6 °F 53.6 °F 72% 29.53 in 6.2 mi ENE 15.0 mph - N/A   Scattered Clouds
11:30 AM 62.6 °F 55.4 °F 77% 29.53 in 6.2 mi East 16.1 mph - N/A   Mostly Cloudy
12:00 PM 66.2 °F 55.4 °F 68% 29.50 in 6.2 mi East 17.3 mph - N/A   Partly Cloudy
12:30 PM 64.4 °F 55.4 °F 73% 29.50 in 6.2 mi East 19.6 mph - N/A   Unknown
1:00 PM 64.4 °F 55.4 °F 73% 29.47 in 6.2 mi East 18.4 mph - N/A   Partly Cloudy
1:30 PM 66.2 °F 55.4 °F 68% 29.47 in 6.2 mi East 16.1 mph - N/A   Unknown
2:00 PM 66.2 °F 57.2 °F 73% 29.47 in 6.2 mi East 16.1 mph - N/A   Unknown
2:30 PM 68.0 °F 57.2 °F 68% 29.44 in 6.2 mi East 18.4 mph - N/A   Unknown
3:00 PM 68.0 °F 57.2 °F 68% 29.42 in 6.2 mi East 18.4 mph - N/A   Unknown
3:30 PM 68.0 °F 57.2 °F 68% 29.42 in 6.2 mi East 13.8 mph - N/A   Unknown
4:00 PM 69.8 °F 57.2 °F 64% 29.42 in 6.2 mi East 12.7 mph - N/A   Unknown
4:30 PM 71.6 °F 55.4 °F 57% 29.39 in 6.2 mi NE 10.4 mph - N/A   Unknown
5:00 PM 77.0 °F 41.0 °F 28% 29.39 in 6.2 mi NW 20.7 mph - N/A   Unknown
5:30 PM 77.0 °F 39.2 °F 26% 29.39 in 6.2 mi NW 18.4 mph 33.4 mph N/A   Unknown
6:00 PM 77.0 °F 39.2 °F 26% 29.39 in 6.2 mi NW 17.3 mph - N/A   Unknown
6:30 PM 75.2 °F 39.2 °F 27% 29.39 in 6.2 mi NNW 20.7 mph - N/A   Unknown
7:00 PM 73.4 °F 41.0 °F 31% 29.39 in 6.2 mi WNW 23.0 mph 34.5 mph N/A   Unknown
7:30 PM 71.6 °F 41.0 °F 33% 29.42 in 6.2 mi WNW 26.5 mph 39.1 mph N/A   Unknown
8:00 PM 69.8 °F 42.8 °F 38% 29.42 in 6.2 mi WNW 23.0 mph 38.0 mph N/A   Unknown
8:30 PM 66.2 °F 42.8 °F 43% 29.47 in 6.2 mi WNW 26.5 mph 38.0 mph N/A   Unknown
9:00 PM 64.4 °F 42.8 °F 45% 29.44 in 6.2 mi WNW 5.8 mph - N/A   Unknown
9:30 PM 62.6 °F 41.0 °F 45% 29.47 in 6.2 mi WNW 15.0 mph 26.5 mph N/A   Unknown
10:00 PM 62.6 °F 41.0 °F 45% 29.47 in 6.2 mi WNW 12.7 mph - N/A   Unknown
10:30 PM 62.6 °F 39.2 °F 42% 29.44 in 6.2 mi WNW 12.7 mph 24.2 mph N/A   Unknown
11:00 PM 62.6 °F 35.6 °F 37% 29.47 in 6.2 mi WNW 16.1 mph - N/A   Unknown
11:30 PM 60.8 °F 33.8 °F 36% 29.47 in 6.2 mi WNW 18.4 mph 29.9 mph N/A   Unknown